* Astronomy

Members Login
Username 
 
Password 
    Remember Me  
Post Info TOPIC: Asteroid 2012 FB57


L

Posts: 131433
Date:
Asteroid 2012 FB57 = 2008 VO12
Permalink  
 


Orbital elements:
2012 FB57 = 2008 VO12                                    Earth MOID = 0.2340 AU
Id. T. B. Spahr
Epoch 2012 Mar. 14.0 TT = JDT 2456000.5                 MPC
M 358.31254              (2000.0)            P               Q
n   0.34367600     Peri.   40.20711     -0.94797177     -0.30891304
a   2.0185364      Node   121.63874     +0.26392499     -0.89776638
e   0.3974650      Incl.    5.18609     +0.17802562     -0.31398769
P   2.87           H   19.5           G   0.15           U   2

MPEC 2012 - J27



__________________


L

Posts: 131433
Date:
Asteroid 2012 FB57
Permalink  
 


Orbital elements:
2012 FB57                                                Earth MOID = 0.2327 AU
Epoch 2012 Mar. 14.0 TT = JDT 2456000.5                 MPC
M   0.95416              (2000.0)            P               Q
n   0.38255764     Peri.   31.12317     -0.90727890     -0.41291090
a   1.8793376      Node   124.28143     +0.36328039     -0.86501538
e   0.3530710      Incl.    5.53405     +0.21183097     -0.28504909
P   2.58           H   19.5           G   0.15           U   8

MPEC 2012 - F104



__________________
Page 1 of 1  sorted by
 
Quick Reply

Please log in to post quick replies.



Create your own FREE Forum
Report Abuse
Powered by ActiveBoard